Yakima, WA
on Sunday, December 16, 2012

Sunday
Previous Day Next Day
Daily Summary
 ActualAverageRecord
Temperature
Mean Temperature °F 28°F  
Max Temperature 34°F 35°F 62°F (1999)
Min Temperature 20°F 21°F -15°F (1964)
Degree Days
Heating Degree Days 38 37  
Month to date heating degree days 445 569  
Since 1 July heating degree days 1683 2102  
Cooling Degree Days 0 0  
Month to date cooling degree days 0 0  
Year to date cooling degree days 667 472  
Moisture
Dew Point 26°F   
Average Humidity 87    
Maximum Humidity 96    
Minimum Humidity 78    
Precipitation
Precipitation 0.58 in 0.05 in 0.58 in (2012)
Month to date precipitation 1.38 0.77  
Year to date precipitation 8.57 7.49  
Snow
Snow 6.20 in 0.30 in 6.20 in (2012)
Month to date snowfall 7.4 4.7  
Year to date snowfall 29.6 16.9  
Since 1 July snowfall 8.1 8.3  
Snow Depth 6.00 in   
Wind
Wind Speed 2 mph   
Max Wind Speed 37 mph   
Max Gust Speed 47 mph   
Visibility 4 miles   
Events Fog , Rain , Snow   

Key: T is trace of precipitation, MM is missing value
Source: NWS Daily Summary
Time(PST)TemperatureDew PointHumidity Pressure Visibility Wind DirectionWind SpeedGust SpeedPrecipitationEvents Conditions
12:53 AM 21.0°F 18.0°F 88% 29.75 in 10.0 miles West 3.5 mph - N/A   Clear
1:53 AM 21.9°F 17.1°F 82% 29.77 in 10.0 miles West 4.6 mph - N/A   Scattered Clouds
2:28 AM 21.2°F 17.6°F 86% 29.74 in 10.0 miles West 3.5 mph - N/A   Partly Cloudy
2:41 AM 21.2°F 17.6°F 86% 29.74 in 10.0 miles SW 3.5 mph - N/A   Mostly Cloudy
2:53 AM 21.9°F 18.0°F 85% 29.78 in 10.0 miles Calm Calm - N/A   Overcast
3:08 AM 23.0°F 17.6°F 80% 29.75 in 9.0 miles West 4.6 mph - N/A   Overcast
3:53 AM 24.1°F 19.9°F 84% 29.78 in 9.0 miles Calm Calm - N/A   Overcast
4:03 AM 24.8°F 21.2°F 86% 29.75 in 2.5 miles Calm Calm - N/A   Overcast
4:09 AM 24.8°F 21.2°F 86% 29.75 in 1.0 miles South 3.5 mph - N/A   Mist
4:18 AM 24.8°F 21.2°F 86% 29.75 in 0.8 miles Calm Calm - N/A   Mist
4:37 AM 26.6°F 23.0°F 86% 29.75 in 0.2 miles West 3.5 mph - N/A Fog Light Freezing Fog
4:53 AM 26.6°F 24.8°F 93% 29.75 in 0.2 miles SSW 4.6 mph - N/A Fog Light Freezing Fog
5:48 AM 26.6°F 24.8°F 93% 29.75 in 0.5 miles Calm Calm - N/A Fog Light Freezing Fog
5:53 AM 26.1°F 24.1°F 92% 29.79 in 0.5 miles Calm Calm - N/A Fog Light Freezing Fog
6:25 AM 26.6°F 23.0°F 86% 29.75 in 2.0 miles Calm Calm - N/A   Overcast
6:53 AM 25.0°F 21.9°F 88% 29.80 in 2.0 miles WNW 5.8 mph - N/A   Overcast
7:19 AM 26.6°F 23.0°F 86% 29.76 in 3.0 miles WSW 3.5 mph - N/A   Overcast
7:26 AM 26.6°F 23.0°F 86% 29.76 in 2.0 miles Calm Calm - N/A   Overcast
7:36 AM 26.6°F 23.0°F 86% 29.76 in 1.0 miles Calm Calm - N/A   Overcast
7:53 AM 26.1°F 23.0°F 88% 29.81 in 1.0 miles West 4.6 mph - N/A   Overcast
8:24 AM 24.8°F 21.2°F 86% 29.76 in 3.0 miles West 5.8 mph - N/A   Overcast
8:33 AM 24.8°F 21.2°F 86% 29.77 in 5.0 miles West 4.6 mph - N/A   Mostly Cloudy
8:53 AM 24.1°F 21.0°F 88% 29.81 in 7.0 miles WNW 4.6 mph - N/A   Scattered Clouds
9:53 AM 28.0°F 23.0°F 81% 29.79 in 10.0 miles Calm Calm - N/A   Scattered Clouds
10:53 AM 28.9°F 25.0°F 85% 29.78 in 10.0 miles Calm Calm - N/A   Scattered Clouds
11:53 AM 32.0°F 27.0°F 82% 29.74 in 10.0 miles Calm Calm - N/A   Mostly Cloudy
12:53 PM 32.0°F 27.0°F 82% 29.70 in 10.0 miles Calm Calm - N/A   Mostly Cloudy
1:53 PM 33.1°F 28.0°F 82% 29.66 in 8.0 miles Calm Calm - 0.00 in Snow Light Snow
2:53 PM 33.1°F 28.9°F 85% 29.61 in 6.0 miles Calm Calm - 0.00 in   Overcast
3:53 PM 34.0°F 28.9°F 82% 29.55 in 9.0 miles WNW 3.5 mph - 0.00 in   Overcast
4:16 PM 33.8°F 28.4°F 81% 29.49 in 1.8 miles Calm Calm - 0.00 in Snow Light Snow
4:27 PM 33.8°F 28.4°F 81% 29.47 in 1.8 miles WNW 3.5 mph - 0.01 in Snow Light Snow
4:51 PM 33.8°F 30.2°F 87% 29.46 in 0.8 miles West 3.5 mph - 0.02 in Snow Light Snow
4:53 PM 33.1°F 30.0°F 89% 29.49 in 0.5 miles WNW 5.8 mph - 0.03 in Fog , Snow Snow
5:02 PM 33.8°F 30.2°F 87% 29.46 in 0.5 miles Variable 4.6 mph - 0.02 in Fog , Snow Snow
5:11 PM 33.8°F 30.2°F 87% 29.44 in 0.5 miles WNW 3.5 mph - 0.03 in Snow Light Snow
5:53 PM 33.1°F 30.9°F 92% 29.43 in 0.5 miles North - - 0.09 in Fog , Snow Snow
6:03 PM 33.8°F 30.2°F 87% 29.39 in 0.5 miles North - - 0.02 in Fog , Snow Snow
6:53 PM 33.1°F 30.9°F 92% 29.36 in 1.8 miles SW 4.6 mph - 0.11 in Snow Light Snow
6:56 PM 33.8°F 30.2°F 87% 29.31 in 2.0 miles North - - 0.01 in Snow Light Snow
7:04 PM 33.8°F 30.2°F 87% 29.28 in 1.5 miles North - - 0.01 in Snow Light Snow
7:21 PM 33.8°F 30.2°F 87% 29.28 in 0.8 miles WSW 6.9 mph 47.2 mph 0.05 in Snow Light Snow
7:28 PM 33.8°F 30.2°F 87% 29.28 in 1.2 miles WSW 16.1 mph 26.5 mph 0.06 in Snow Light Snow
7:42 PM 33.8°F 30.2°F 87% 29.28 in 0.8 miles WSW 9.2 mph - 0.10 in Snow Light Snow
7:49 PM 33.8°F 30.2°F 87% 29.26 in 0.8 miles WSW 8.1 mph - 0.12 in Snow Light Snow
7:53 PM 34.0°F 30.9°F 89% 29.29 in 0.8 miles West 8.1 mph - 0.12 in Snow Light Snow
8:02 PM 33.8°F 30.2°F 87% 29.25 in 1.0 miles West 8.1 mph - 0.02 in Snow Light Snow
8:53 PM 34.0°F 32.0°F 92% 29.26 in 1.0 miles North - - 0.11 in Snow Light Snow
9:02 PM 33.8°F 32.0°F 93% 29.23 in 0.8 miles NW 36.8 mph 164.6 mph 0.02 in Snow Light Snow
9:35 PM 33.8°F 32.0°F 93% 29.18 in 1.0 miles Calm Calm - N/A Snow Light Snow
9:44 PM 33.8°F 32.0°F 93% 29.18 in 3.0 miles Calm Calm - N/A Snow Light Snow
9:53 PM 34.0°F 32.0°F 92% 29.21 in 7.0 miles Calm Calm - 0.11 in Snow Light Snow
10:37 PM 33.8°F 32.0°F 93% 29.17 in 6.0 miles Calm Calm - N/A   Overcast
10:51 PM 33.8°F 30.2°F 87% 29.18 in 4.0 miles ESE 3.5 mph - N/A   Overcast
10:53 PM 34.0°F 30.9°F 89% 29.20 in 4.0 miles Calm Calm - N/A   Overcast
11:11 PM 33.8°F 32.0°F 93% 29.16 in 2.5 miles NNE 5.8 mph - 0.00 in Rain Light Rain
11:21 PM 33.8°F 32.0°F 93% 29.16 in 3.0 miles East 3.5 mph - 0.00 in   Overcast
11:53 PM 33.8°F 32.0°F 93% 29.15 in 3.0 miles Calm Calm - N/A Rain Light Rain
Moon Phase
Dec. 16 Dec. 20 Dec. 28 Jan. 04 Jan. 11
Sunrise:07:40 AM (PST) Moon Rise:10:06 AM (PST)12/16
Sunset:04:15 PM (PST) Moon Set:08:48 PM (PST)12/16

Copyright © 2014 The Weather Underground, Inc.